Printer-friendly version

IAU Minor Planet Center

Minor Planet Center

MPEC 2008-G88 : 2008 GE110

The following Minor Planet Electronic Circular may be linked-to from your own Web pages, but must not otherwise be redistributed electronically.


Read MPEC 2008-G87 Read MPEC 2008-G89


M.P.E.C. 2008-G88                                Issued 2008 Apr. 15, 19:06 UT

     The Minor Planet Electronic Circulars contain information on unusual
         minor planets and routine data on comets.  They are published
   on behalf of Commission 20 of the International Astronomical Union by the
          Minor Planet Center, Smithsonian Astrophysical Observatory,
                          Cambridge, MA 02138, U.S.A.

             Prepared using the Tamkin Foundation Computer Network

                              MPC@CFA.HARVARD.EDU
          URL http://www.cfa.harvard.edu/iau/mpc.html  ISSN 1523-6714

                                  2008 GE110

Observations:
     K08GB0E* C2008 04 14.30567 12 53 06.28 +05 12 52.0          20.4 V EG088G96
     K08GB0E  C2008 04 14.31233 12 53 06.39 +05 12 44.6          19.9 V EG088G96
     K08GB0E  C2008 04 14.31906 12 53 06.50 +05 12 37.9          20.1 V EG088G96
     K08GB0E  C2008 04 14.32575 12 53 06.64 +05 12 30.5          19.9 V EG088G96
     K08GB0E  C2008 04 14.38554 12 53 07.59 +05 11 26.4                 EG088291
     K08GB0E  C2008 04 14.38959 12 53 07.65 +05 11 21.7                 EG088291
     K08GB0E  C2008 04 14.38977 12 53 07.65 +05 11 21.3          20.4 V EG088G96
     K08GB0E  C2008 04 14.39395 12 53 07.73 +05 11 16.8                 EG088291
     K08GB0E  C2008 04 14.39694 12 53 07.80 +05 11 13.3          20.2 V EG088G96
     K08GB0E  C2008 04 14.40414 12 53 07.90 +05 11 05.4          20.6 V EG088G96
     K08GB0E  C2008 04 14.41133 12 53 08.05 +05 10 57.6          20.4 V EG088G96
     K08GB0E  C2008 04 15.13579312 53 30.45 +04 57 46.9          20.8 V EG088H55
     K08GB0E  C2008 04 15.14224012 53 30.54 +04 57 39.4          20.4 V EG088H55
     K08GB0E  C2008 04 15.14866512 53 30.64 +04 57 32.5          20.9 V EG088H55
     K08GB0E  C2008 04 15.16920 12 53 31.76 +04 57 14.1                 EG088291
     K08GB0E  C2008 04 15.17286 12 53 31.83 +04 57 09.9                 EG088291
     K08GB0E HC2008 04 15.17661 12 53 31.97 +04 57 06.7                 EG088291
     K08GB0E  C2008 04 15.24289 12 53 33.03 +04 55 53.0          20.4 V EG088G96
     K08GB0E  C2008 04 15.24361 12 53 33.03 +04 55 52.0          19.9 V EG088G96
     K08GB0E  C2008 04 15.24987 12 53 33.18 +04 55 45.3          20.6 V EG088G96
     K08GB0E  C2008 04 15.25059 12 53 33.18 +04 55 44.6          20.1 V EG088G96
     K08GB0E  C2008 04 15.25687 12 53 33.28 +04 55 37.6          20.7 V EG088G96
     K08GB0E  C2008 04 15.25758 12 53 33.28 +04 55 36.5          19.7 V EG088G96
     K08GB0E  C2008 04 15.26388 12 53 33.39 +04 55 30.9          20.1 V EG088G96
     K08GB0E  C2008 04 15.26458 12 53 33.39 +04 55 30.5          19.8 V EG088G96

Observer details:
291 LPL/Spacewatch II.  Observer R. S. McMillan.  1.8-m f/2.7 reflector + CCD.
G96 Mt. Lemmon Survey.  Observer E. Beshore.  Measurers E. C. Beshore,
    A. Boattini, G. J. Garradd, A. R. Gibbs, A. D. Grauer, R. E. Hill,
    R. A. Kowalski, S. M. Larson, R. H. McNaught.  1.5-m reflector + CCD.
H55 Astronomical Research Observatory, Charleston.  Observer R. Holmes.
    Measurers J. Jones, K. Ferland, T. Morin.  0.81-m f/4.0 astrograph + CCD.

Orbital elements:
2008 GE110                                               Earth MOID = 0.2454 AU
Epoch 2008 May 14.0 TT = JDT 2454600.5                  MPC
M   8.40137              (2000.0)            P               Q
n   0.34101765     Peri.  151.73650     -0.89879870     +0.43505545
a   2.0290129      Node    54.15230     -0.41364343     -0.80113871
e   0.3852271      Incl.    3.80119     -0.14512065     -0.41097874
P   2.89           H   22.0           G   0.15           U   9
Residuals in seconds of arc
080414 G96  0.2-  0.1-    080414 G96  0.1-  0.2-    080415 G96  0.3-  0.5-
080414 G96  0.1-  0.3-    080414 G96  0.2+  0.2-    080415 G96  0.4+  0.3-
080414 G96  0.0   0.2+    080415 H55  0.2+  0.3-    080415 G96  0.2+  0.2-
080414 G96  0.6+  0.0     080415 H55  0.2-  0.8-    080415 G96  0.2+  0.3-
080414 291  0.0   0.3+    080415 H55  0.4-  0.6-    080415 G96  0.0   0.7-
080414 291  0.1-  0.0     080415 291  0.4-  0.0     080415 G96  0.1+  0.7+
080414 G96  0.1+  0.1+    080415 291  0.4-  0.2-    080415 G96  0.0   1.0+
080414 291  0.1-  0.2-    080415 291  0.7+  0.7+
080414 G96  0.4+  0.1-    080415 G96  0.2-  0.3-

Ephemeris:
2008 GE110               a,e,i = 2.03, 0.39, 4                   q = 1.2474
Date    TT    R. A. (2000) Decl.     Delta      r     Elong.  Phase     V
2008 04 14    12 52.97   +05 18.6    0.255    1.248   162.6    13.9    20.3
2008 04 24    12 58.67   +01 58.7    0.258    1.248   157.4    18.0    20.5
2008 05 04    13 07.29   -01 52.9    0.272    1.255   152.0    22.1    20.7
2008 05 14    13 19.21   -05 55.1    0.296    1.269   147.0    25.7    21.0
2008 05 24    13 34.18   -09 48.6    0.330    1.290   142.3    28.7    21.4
2008 06 03    13 51.54   -13 20.6    0.375    1.317   137.9    31.1    21.8

Sonia Keys                   (C) Copyright 2008 MPC           M.P.E.C. 2008-G88

Read MPEC 2008-G87 Read MPEC 2008-G89


Our Web policy. Index to the CBAT/MPC/ICQ pages.


Valid HTML 4.01!